EDT,Max TemperatureF,Mean TemperatureF,Min TemperatureF,Max Dew PointF,MeanDew PointF,Min DewpointF,Max Humidity, Mean Humidity, Min Humidity, Max Sea Level PressureIn, Mean Sea Level PressureIn, Min Sea Level PressureIn, Max VisibilityMiles, Mean VisibilityMiles, Min VisibilityMiles, Max Wind SpeedMPH, Mean Wind SpeedMPH, Max Gust SpeedMPH,PrecipitationIn, CloudCover, Events, WindDirDegrees
2013-10-1,78,60,42,56,48,42,100,73,46,30.04,29.98,29.88,10,4,0,15,1,20,0.00,4,Fog,277
2013-10-2,78,63,47,59,51,46,100,75,50,30.00,29.92,29.87,10,4,0,18,3,25,0.00,5,Fog,270
2013-10-3,74,59,43,52,46,42,100,67,33,30.12,30.07,30.00,10,7,0,9,1,12,0.00,2,Fog,215
2013-10-4,63,53,43,55,48,43,100,84,67,30.14,30.09,30.07,10,7,0,5,0,6,0.01,7,Fog-Rain,-1
2013-10-5,64,60,56,56,54,51,100,84,67,30.14,30.11,30.09,10,10,9,5,0,7,0.00,8,,135
2013-10-6,58,54,49,56,50,48,100,93,86,30.23,30.19,30.14,10,5,1,6,1,7,0.60,8,Rain,111
2013-10-7,70,59,48,65,54,47,100,86,72,30.14,29.96,29.70,10,5,0,22,3,29,0.52,8,Fog-Rain,216
2013-10-8,62,49,36,47,40,33,100,67,34,30.43,30.19,29.96,10,9,2,17,4,22,0.00,1,,289
2013-10-9,62,47,32,44,36,32,100,70,39,30.54,30.45,30.39,10,5,0,7,0,9,0.00,3,Fog,170
2013-10-10,59,47,35,49,40,35,100,79,57,30.40,30.34,30.22,10,4,0,7,0,8,0.00,3,Fog,270
2013-10-11,69,55,41,52,45,42,100,71,42,30.22,30.19,30.14,10,9,1,5,0,7,0.00,1,,-1
2013-10-12,58,47,36,51,41,36,100,89,77,30.42,30.29,30.21,10,6,0,9,3,13,0.00,6,Fog,106
2013-10-13,63,53,42,47,45,42,100,78,55,30.47,30.42,30.38,10,7,0,12,2,14,0.00,4,Fog,151
2013-10-14,65,54,42,54,48,41,100,78,56,30.40,30.32,30.24,10,10,6,6,1,8,0.00,8,,183
2013-10-15,64,58,51,56,53,51,100,84,67,30.29,30.23,30.18,10,10,7,6,0,7,0.00,7,,170
2013-10-16,60,55,49,52,49,46,100,80,60,30.17,30.09,29.89,10,8,0,10,2,13,T,6,Fog-Rain,154
2013-10-17,69,58,47,52,47,43,100,69,37,29.89,29.82,29.70,10,8,2,13,2,17,0.22,3,Rain,277
2013-10-18,62,51,40,52,47,35,100,75,50,29.93,29.72,29.61,10,8,2,18,5,28,0.30,6,Rain,260
2013-10-19,63,48,32,47,37,33,100,73,46,29.99,29.91,29.72,10,6,0,13,2,18,0.01,3,Fog-Rain,169
2013-10-20,56,45,34,47,37,31,93,66,38,30.04,29.84,29.68,10,9,2,21,7,28,0.02,3,Rain,266
2013-10-21,64,47,29,43,33,28,100,67,34,30.13,30.06,29.95,10,6,0,10,2,16,0.00,3,Fog,161
2013-10-22,56,44,32,49,39,31,96,76,56,29.94,29.82,29.74,10,10,8,14,2,20,0.01,3,Rain,270
2013-10-23,52,41,29,34,31,28,100,71,42,29.81,29.72,29.62,10,9,2,13,2,20,0.00,5,,256
2013-10-24,47,38,28,33,29,26,92,69,45,29.89,29.78,29.68,10,10,2,22,7,31,T,5,Rain,251
2013-10-25,46,36,26,31,26,22,100,70,40,30.15,30.05,29.92,10,10,10,16,4,23,0.00,4,,296
2013-10-26,49,37,25,34,26,22,100,67,34,30.16,30.00,29.84,10,10,8,16,4,24,T,5,,213
2013-10-27,52,41,29,36,29,23,85,61,36,30.07,29.90,29.79,10,10,10,20,4,26,T,5,Rain,278
2013-10-28,53,39,25,33,28,22,92,68,44,30.39,30.18,30.07,10,10,10,21,3,32,T,4,,292
2013-10-29,46,33,19,23,19,13,92,59,25,30.50,30.43,30.38,10,10,6,8,1,10,0.00,0,,238
2013-10-30,48,38,27,33,28,20,100,77,54,30.36,30.28,30.21,10,10,5,8,0,12,T,4,Snow,220
2013-10-31,57,42,26,54,37,25,100,96,92,30.27,30.04,29.72,10,4,0,9,1,13,0.29,7,Fog-Rain,321